Change the Weather History Date:

Tuesday, March 19, 2013

  Actual Average Record
Temperature  
Mean Temperature 69 °F -  
Max Temperature 81 °F 79 °F 93 °F (1960)
Min Temperature 57 °F 46 °F 34 °F (1935)
Cooling Degree Days 4    
Growing Degree Days 19 (Base 50)    
Moisture  
Dew Point 38 °F    
Average Humidity 34    
Maximum Humidity 58    
Minimum Humidity 15    
Precipitation  
Precipitation 0.00 in - - ()
Sea Level Pressure  
Sea Level Pressure 29.92 in    
Wind  
Wind Speed 4 mph (West)    
Max Wind Speed 8 mph    
Max Gust Speed -    
Visibility 10 miles    
Events      
Averages and records for this station are not official NWS values.
T = Trace of Precipitation, MM = Missing Value Source: NWS Daily Summary

Daily Weather History Graph

Daily Weather History Graph

Search for Another Location

Airport or City:

Trip Planner

Search our weather history database for the weather conditions in past years. The results will help you decide how hot, cold, wet, or windy it might be!

Date:

Astronomy

Mar. 19, 2013 Rise Set
Actual Time 6:34 AM MST 6:40 PM MST
Civil Twilight 6:09 AM MST 7:05 PM MST
Nautical Twilight 5:40 AM MST 7:34 PM MST
Astronomical Twilight 5:11 AM MST 8:03 PM MST
Moon 11:43 AM MST (3/19) 1:14 AM MST (3/19)
Length of Visible Light 12h 56m
Length of Day
12h 06m
Waxing Crescent, 51% of the Moon is Illuminated
Mar 19
Waxing Crescent
Mar 27
Full
Apr 2
Last Quarter
Apr 10
New
Apr 18
First Quarter

Hourly Weather History & Observations

Time (MST) Temp. Dew Point Humidity Pressure Visibility Wind Dir Wind Speed Gust Speed Precip Events Conditions
12:58 AM 66.4 °F 37.4 °F 34% 29.88 in 10.0 mi WSW 1.2 mph - N/A   Clear
1:58 AM 66.4 °F 38.3 °F 36% 29.88 in 10.0 mi SW 8.1 mph - N/A   Overcast
2:58 AM 64.9 °F 38.7 °F 38% 29.88 in 10.0 mi WNW 3.5 mph - N/A   Mostly Cloudy
3:58 AM 62.2 °F 42.6 °F 49% 29.86 in 10.0 mi NNW 1.2 mph - N/A   Overcast
4:58 AM 61.2 °F 44.1 °F 53% 29.86 in 10.0 mi NW 3.5 mph - N/A   Clear
5:58 AM 58.1 °F 43.0 °F 57% 29.89 in 10.0 mi NW 4.6 mph - N/A   Clear
6:58 AM 57.7 °F 43.0 °F 58% 29.91 in 10.0 mi North 3.5 mph - N/A   Clear
7:58 AM 60.3 °F 42.4 °F 52% 29.94 in 10.0 mi NW 2.3 mph - N/A   Scattered Clouds
8:58 AM 66.0 °F 42.1 °F 42% 29.96 in 10.0 mi NNE 2.3 mph - N/A   Scattered Clouds
9:58 AM 70.0 °F 39.0 °F 32% 29.97 in 9.0 mi SSW 4.6 mph - N/A   Scattered Clouds
10:58 AM 73.2 °F 34.2 °F 24% 29.97 in 7.0 mi South 3.5 mph - N/A   Partly Cloudy
11:58 AM 75.9 °F 33.8 °F 22% 29.96 in 10.0 mi South 5.8 mph - N/A   Clear
12:58 PM 77.0 °F 35.6 °F 22% 29.97 in 10.0 mi South 4.6 mph - N/A   Partly Cloudy
1:58 PM 79.2 °F 35.8 °F 21% 29.91 in 10.0 mi Variable 5.8 mph - N/A   Clear
2:58 PM 80.6 °F 33.8 °F 18% 29.91 in 10.0 mi SSW 6.9 mph - N/A   Clear
3:58 PM 81.7 °F 33.4 °F 18% 29.90 in 10.0 mi Variable 5.8 mph - N/A   Clear
4:58 PM 81.9 °F 29.8 °F 15% 29.90 in 10.0 mi South 5.8 mph - N/A   Clear
5:58 PM 80.8 °F 31.1 °F 16% 29.91 in 10.0 mi SSW 6.9 mph - N/A   Clear
6:58 PM 77.7 °F 32.9 °F 20% 29.91 in 10.0 mi South 5.8 mph - N/A   Clear
8:58 PM 69.4 °F 38.1 °F 32% 29.95 in 10.0 mi NW 4.6 mph - N/A   Clear
9:58 PM 66.2 °F 39.2 °F 37% 29.96 in 10.0 mi NE 4.6 mph - N/A   Clear
10:58 PM 67.3 °F 37.0 °F 33% 29.98 in 10.0 mi North 2.3 mph - N/A   Clear
11:58 PM 62.1 °F 42.1 °F 48% 29.98 in 10.0 mi NNW 8.1 mph - N/A   Clear